Regional Weather Roundup
Issued by NWS

Home | Current Version | Previous Version | Text Only | Print | Product List | Glossary Off
Versions: 1 2 3 4 5 6 7 8 9 10 11 12 13 14 15 16 17 18 19 20 21 22 23 24 25 26 27 28 29 30 31 32 33 34 35 36 37 38 39 40 41 42 43 44 45 46 47 48 49 50

000
ASUS43 KOAX 192010
RWRNE

WEATHER ROUNDUP FOR NEBRASKA
NATIONAL WEATHER SERVICE OMAHA NE
200 PM CST SUN NOV 19 2017

NOTES: SATELLITE DATA IS BEING USED TO AUGMENT CLOUD COVER ABOVE
       12000 FEET.
       "FAIR" INDICATES FEW OR NO CLOUDS BELOW 12,000 FEET WITH NO
       SIGNIFICANT WEATHER AND/OR OBSTRUCTIONS TO VISIBILITY.


NEZ001>004-019>022-054>056-192100-
NEBRASKA PANHANDLE

CITY           SKY/WX    TMP DP  RH WIND       PRES   REMARKS
SCOTTSBLUFF    CLOUDY    56   6  13 W21G31    29.97F
ALLIANCE       SUNNY     57  14  18 W15       29.94F
CHADRON        CLOUDY    55  17  22 W8        29.92F
GORDON         FAIR      55  13  18 W16G22    29.91F
KIMBALL        CLOUDY    59  12  15 W20       30.00F
SIDNEY         SUNNY     58  19  22 SW14      30.00F
$$

NEZ057>060-069>072-079>082-192100-
SOUTHWEST NEBRASKA

CITY           SKY/WX    TMP DP  RH WIND       PRES   REMARKS
NORTH PLATTE   SUNNY     58  21  24 W15       30.00F
IMPERIAL       SUNNY     60  18  19 SW10      30.01F
LEXINGTON      SUNNY     56  24  28 SW16G22   30.02F
MCCOOK         SUNNY     59  22  24 SW10      30.02F
OGALLALA       SUNNY     57  19  22 W12       30.00F
$$

NEZ005>010-023>029-035>040-094-192100-
NORTH CENTRAL NEBRASKA

CITY           SKY/WX    TMP DP  RH WIND       PRES   REMARKS
VALENTINE      SUNNY     58  19  22 W12       29.91F
AINSWORTH      SUNNY     55  22  27 W10       29.92F
BROKEN BOW     SUNNY     57  23  26 W17       29.98F
O`NEILL        SUNNY     55  26  32 SW12      29.96F
ORD            SUNNY     56  21  25 W18       29.97F
THEDFORD       SUNNY     58  21  24 W13       29.96F
$$

NEZ041-046>049-061>064-073>077-083>087-192100-
SOUTH CENTRAL NEBRASKA

CITY           SKY/WX    TMP DP  RH WIND       PRES   REMARKS
GRAND ISLAND   SUNNY     55  26  32 SW17      30.03F
AURORA         SUNNY     55  24  30 SW16      30.03F
HASTINGS       SUNNY     55  20  25 SW14G28   30.04F
HEBRON         SUNNY     56  24  28 SW13      30.07F
HOLDREGE       SUNNY     57  25  28 SW13G20   30.02F
KEARNEY        SUNNY     55  25  31 SW16G22   30.03F
YORK           SUNNY     55  21  26 SW15G22   30.04F
$$

NEZ011>018-030>034-042>045-192100-
NORTHEAST NEBRASKA

CITY           SKY/WX    TMP DP  RH WIND       PRES   REMARKS
NORFOLK        SUNNY     54  24  31 SW16      29.96F
ALBION         SUNNY     55  24  29 SW18      29.99F
BLAIR          SUNNY     52  30  43 S16       30.04F
COLUMBUS       SUNNY     54  23  30 SW14      30.03F
FREMONT        SUNNY     53  27  36 S14G20    30.04F
TEKAMAH        SUNNY     52  29  41 SW17      30.03F
WAYNE          SUNNY     54  18  24 SW16      29.97F
$$

NEZ050>053-065>068-078-088>093-192100-
SOUTHEAST NEBRASKA

CITY           SKY/WX    TMP DP  RH WIND       PRES   REMARKS
LINCOLN        SUNNY     55  23  28 SW17      30.07F
OMAHA EPPLEY   MOSUNNY   52  28  39 S14       30.06F
BEATRICE       SUNNY     55  25  31 SW16G24   30.08F
FALLS CITY     SUNNY     54  27  35 SW14      30.10F
NEBRASKA CITY  SUNNY     54  30  38 SW14      30.08F
PLATTSMOUTH    SUNNY     53  29  39 SW14      30.07F
$$

NEZ044-045-051>053-067-192100-
OMAHA AREA

CITY           SKY/WX    TMP DP  RH WIND       PRES   REMARKS
OMAHA EPPLEY   MOSUNNY   52  28  39 S14       30.06F
BLAIR          SUNNY     52  30  43 S16       30.04F
FREMONT        SUNNY     53  27  36 S14G20    30.04F
MILLARD        SUNNY     55  27  35 SW10      30.06F
OFFUTT AFB     SUNNY     53  28  38 S13G18    30.05F
PLATTSMOUTH    SUNNY     53  29  39 SW14      30.07F
WAHOO          FAIR      55  25  31 SW17      30.05F
$$




USA.gov is the U.S. government's official web portal to all federal, state and local government web resources and services.